Home   Weather   Brades   Past weeks

Flag for Montserrat Past Weather in Brades, Montserrat — Yesterday and Last 2 Weeks

Now
81 °F

Passing clouds.


Feels Like: 85 °F
Forecast: 77 / 80 °F
Wind: 13 mph from East

Location: Vc Bird International Antigua Airport

Current Time: Apr 30, 2017 at 4:30:47 pm

Latest Report: Apr 30, 2017 at 3:00 pm


Visibility: N/A

Pressure: 30.01 "Hg

Humidity: 74%

Dew Point: 72 °F

Location of BradesLocation

Past Weather in Brades — Graph

°F

Brades Temperature Yesterday

Maximum temperature yesterday: 82 °F (at 11:00 am)
Minimum temperature yesterday: 73 °F (at 1:00 am)
Average temperature yesterday: 79 °F

High & Low Weather Summary for the Past Weeks

 TemperatureHumidityPressure
High84 °F (Apr 24, 11:00 am)89% (Apr 24, 9:00 pm)30.07 "Hg (Apr 24, 9:00 pm)
Low73 °F (Apr 29, 1:00 am)55% (Apr 19, 2:00 pm)29.89 "Hg (Apr 21, 4:00 am)
Average79 °F72%29.99 "Hg
* Reported Apr 19 3:00 am — Apr 30 3:00 pm, Brades, Weather by CustomWeather, © 2017

Note: Actual official high and low records may vary slightly from our data, if they occured in-between our weather recording intervals... More about our weather records

Advertising

Brades Weather History for the Previous 24 Hours

Scroll right to see more
 ConditionsComfort  
Time TempWeatherWind HumidityBarometerVisibility
3:00 pm
Sun, Apr 30
81 °FPassing clouds.13 mph74%30.01 "HgN/A
2:00 pm82 °FPassing clouds.13 mph62%30.01 "HgN/A
1:00 pm82 °FPassing clouds.14 mph70%30.04 "HgN/A
12:00 pm81 °FScattered clouds.15 mph74%30.04 "HgN/A
11:00 am81 °FPassing clouds.14 mph74%30.07 "HgN/A
10:00 am81 °FPassing clouds.14 mph74%30.07 "HgN/A
9:00 am79 °FScattered clouds.16 mph79%30.07 "HgN/A
8:00 am81 °FSprinkles. Scattered clouds.13 mph74%30.07 "HgN/A
7:00 am75 °FSprinkles. Scattered clouds.9 mph89%30.04 "Hg4 mi
6:00 am77 °FScattered showers. Scattered clouds.13 mph79%30.04 "HgN/A
5:00 am77 °FPassing clouds.10 mph83%30.01 "HgN/A
4:00 am77 °FPartly cloudy.10 mph83%30.01 "HgN/A
3:00 am77 °FPassing clouds.10 mph79%30.01 "HgN/A
2:00 am79 °FPassing clouds.12 mph74%30.01 "HgN/A
1:00 am77 °FPassing clouds.9 mph83%30.04 "HgN/A
12:00 am79 °FPassing clouds.13 mph74%30.04 "HgN/A
11:00 pm
Sat, Apr 29
79 °FPassing clouds.14 mph74%30.04 "HgN/A
10:00 pm79 °FPassing clouds.12 mph74%30.04 "HgN/A
9:00 pm79 °FPassing clouds.13 mph74%30.04 "HgN/A
8:00 pm79 °FPassing clouds.13 mph74%30.04 "HgN/A
7:00 pm79 °FPassing clouds.12 mph74%30.01 "HgN/A
6:00 pm79 °FBroken clouds.14 mph74%30.01 "HgN/A
5:00 pm81 °FScattered clouds.13 mph74%29.98 "HgN/A
4:00 pm82 °FPartly sunny.13 mph70%30.01 "HgN/A
Weather by CustomWeather, © 2017

See weather overviewHow to use our weather pages